timestamp,surface_pressure_avg,surface_temp_avg,battery_voltage,lat,long
2019-01-04 00:00:00+00:00,319.1447,1.36,12.97,47.84626,-54.09684
2019-01-04 00:10:00+00:00,320.048,1.36,12.89,47.84626,-54.09684
2019-01-04 00:20:00+00:00,319.2246,1.34,12.97,47.84626,-54.09684
2019-01-04 00:30:00+00:00,307.8381,1.3,12.97,47.84626,-54.09684
2019-01-04 00:40:00+00:00,292.7147,1.3,12.97,47.84626,-54.09684
2019-01-04 00:50:00+00:00,284.1531,1.3,12.97,47.84626,-54.09684
2019-01-04 01:00:00+00:00,273.0247,1.3,12.89,47.84626,-54.09684
2019-01-04 01:10:00+00:00,262.8513,1.3,12.81,47.84626,-54.09684
2019-01-04 01:20:00+00:00,254.1198,1.3,12.89,47.84626,-54.09684
2019-01-04 01:40:00+00:00,240.8947,1.3,12.97,47.84626,-54.09684
2019-01-04 01:50:00+00:00,233.3814,1.3,12.97,47.84626,-54.09684
2019-01-04 02:00:00+00:00,228.7231,1.29,12.89,47.84626,-54.09684
2019-01-04 02:10:00+00:00,222.2014,1.3,12.81,47.84626,-54.09684
2019-01-04 02:20:00+00:00,215.1031,1.27,12.89,47.84626,-54.09684
2019-01-04 02:30:00+00:00,211.0731,1.28,12.89,47.84626,-54.09684
2019-01-04 02:40:00+00:00,206.9931,1.3,12.97,47.84626,-54.09684
2019-01-04 02:50:00+00:00,197.8131,1.2,12.97,47.84626,-54.09684
2019-01-04 03:00:00+00:00,191.8448,1.0,12.81,47.84626,-54.09684
2019-01-04 03:10:00+00:00,193.1949,0.8,12.81,47.84626,-54.09684
2019-01-04 03:20:00+00:00,191.8365,0.6,12.89,47.84626,-54.09684
2019-01-04 03:30:00+00:00,185.3398,0.4,12.89,47.84626,-54.09684
2019-01-04 03:40:00+00:00,184.9681,0.3,12.89,47.84626,-54.09684
2019-01-04 03:50:00+00:00,189.8381,0.3,12.97,47.84626,-54.09684
2019-01-04 04:00:00+00:00,189.1031,0.3,12.81,47.84626,-54.09684
2019-01-04 04:10:00+00:00,189.5215,0.3,12.73,47.84626,-54.09684
2019-01-04 04:20:00+00:00,194.5848,0.3,12.89,47.84626,-54.09684
2019-01-04 04:30:00+00:00,195.7248,0.3,12.89,47.84626,-54.09684
2019-01-04 04:40:00+00:00,196.3681,-0.07,12.89,47.84626,-54.09684
2019-01-04 04:50:00+00:00,202.7998,-0.12,12.89,47.84626,-54.09684
2019-01-04 05:00:00+00:00,206.1765,-0.2,12.81,47.84626,-54.09684
2019-01-04 05:10:00+00:00,205.6431,-0.27,12.73,47.84626,-54.09684
2019-01-04 05:20:00+00:00,208.3598,-0.1,12.81,47.84626,-54.09684
2019-01-04 05:30:00+00:00,211.8681,0.35,12.89,47.84626,-54.09684
2019-01-04 05:40:00+00:00,214.1231,0.6,12.89,47.84626,-54.09684
2019-01-04 05:50:00+00:00,218.8997,0.4,12.89,47.84626,-54.09684
2019-01-04 06:00:00+00:00,225.2414,0.1,12.81,47.84626,-54.09684
2019-01-04 06:10:00+00:00,228.6931,0.03,12.73,47.84626,-54.09684
2019-01-04 06:20:00+00:00,232.3548,0.22,12.81,47.84626,-54.09684
2019-01-04 06:30:00+00:00,239.4764,0.25,12.81,47.84626,-54.09684
2019-01-04 06:40:00+00:00,242.3431,0.2,12.89,47.84626,-54.09684
2019-01-04 06:50:00+00:00,243.5514,0.0,12.89,47.84626,-54.09684
2019-01-04 07:00:00+00:00,246.5815,-0.1,12.81,47.84626,-54.09684
2019-01-04 07:10:00+00:00,251.5798,-0.1,12.73,47.84626,-54.09684
2019-01-04 07:20:00+00:00,252.5448,-0.1,12.81,47.84626,-54.09684
2019-01-04 07:30:00+00:00,252.6981,-0.1,12.81,47.84626,-54.09684
2019-01-04 07:40:00+00:00,259.843,-0.1,12.89,47.84626,-54.09684
2019-01-04 07:50:00+00:00,274.2213,-0.1,12.89,47.84626,-54.09684
2019-01-04 08:00:00+00:00,279.1814,0.03,12.73,47.84626,-54.09684
2019-01-04 08:10:00+00:00,284.5964,0.3,12.73,47.84626,-54.09684
2019-01-04 08:20:00+00:00,296.9147,0.3,12.81,47.84626,-54.09684
2019-01-04 08:30:00+00:00,309.2497,0.12,12.81,47.84626,-54.09684
2019-01-04 08:40:00+00:00,308.1881,0.15,12.81,47.84626,-54.09684
2019-01-04 08:50:00+00:00,314.723,0.21,12.89,47.84626,-54.09684
2019-01-04 09:00:00+00:00,325.2396,0.3,12.73,47.84626,-54.09684
2019-01-04 09:10:00+00:00,330.7013,0.3,12.73,47.84626,-54.09684
2019-01-04 09:20:00+00:00,330.5796,0.2,12.81,47.84626,-54.09684
2019-01-04 09:30:00+00:00,335.8146,0.1,12.81,47.84626,-54.09684
2019-01-04 09:40:00+00:00,345.7996,0.2,12.81,47.84626,-54.09684
2019-01-04 09:50:00+00:00,351.003,0.29,12.81,47.84626,-54.09684
2019-01-04 10:00:00+00:00,351.8096,0.5,12.73,47.84626,-54.09684
2019-01-04 10:10:00+00:00,354.213,0.4,12.65,47.84626,-54.09684
2019-01-04 10:20:00+00:00,354.7228,0.28,12.81,47.84626,-54.09684
2019-01-04 10:30:00+00:00,354.6146,0.48,12.81,47.84626,-54.09684
2019-01-04 10:40:00+00:00,348.7496,0.58,12.81,47.84626,-54.09684
2019-01-04 10:50:00+00:00,347.4347,0.6,12.81,47.84626,-54.09684
2019-01-04 11:00:00+00:00,352.2263,0.6,12.73,47.84626,-54.09684
2019-01-04 11:10:00+00:00,350.8047,0.61,12.65,47.84626,-54.09684
2019-01-04 11:20:00+00:00,342.718,0.64,12.81,47.84626,-54.09684
2019-01-04 11:30:00+00:00,336.3713,0.64,12.81,47.84626,-54.09684
2019-01-04 11:40:00+00:00,339.1712,0.6,12.81,47.84626,-54.09684
2019-01-04 11:50:00+00:00,337.8929,0.62,12.89,47.84626,-54.09684
2019-01-04 12:00:00+00:00,332.643,0.68,12.97,47.84626,-54.09684
2019-01-04 12:10:00+00:00,332.2847,0.7,13.13,47.84626,-54.09684
2019-01-04 12:20:00+00:00,334.0164,0.7,13.53,47.84626,-54.09684
2019-01-04 12:30:00+00:00,328.8029,0.7,16.23,47.84626,-54.09684
2019-01-04 12:40:00+00:00,320.9713,0.7,16.79,47.84626,-54.09684
2019-01-04 12:50:00+00:00,312.538,0.7,16.71,47.84626,-54.09684
2019-01-04 13:00:00+00:00,307.7063,0.74,14.88,47.84626,-54.09684
2019-01-04 13:10:00+00:00,299.7147,0.8,14.88,47.84626,-54.09684
2019-01-04 13:20:00+00:00,295.5997,0.8,14.88,47.84626,-54.09684
2019-01-04 13:30:00+00:00,291.4664,0.8,14.8,47.84626,-54.09684
2019-01-04 13:40:00+00:00,283.9431,0.41,14.72,47.84626,-54.09684
2019-01-04 13:50:00+00:00,272.2647,-0.4,16.39,47.84626,-54.09684
2019-01-04 14:00:00+00:00,267.9814,-0.54,14.8,47.84626,-54.09684
2019-01-04 14:10:00+00:00,263.433,-0.6,15.04,47.84626,-54.09684
2019-01-04 14:20:00+00:00,252.0265,-0.7,16.71,47.84626,-54.09684
2019-01-04 14:30:00+00:00,241.5531,-0.7,15.04,47.84626,-54.09684
2019-01-04 14:40:00+00:00,239.8297,-0.7,15.27,47.84626,-54.09684
2019-01-04 14:50:00+00:00,230.8398,-0.7,15.2,47.84626,-54.09684
2019-01-04 15:00:00+00:00,215.7464,-0.7,14.96,47.84626,-54.09684
2019-01-04 15:10:00+00:00,204.7481,-0.68,15.04,47.84626,-54.09684
2019-01-04 15:20:00+00:00,202.3214,-0.57,16.87,47.84626,-54.09684
2019-01-04 15:30:00+00:00,203.3998,-0.46,16.47,47.84626,-54.09684
2019-01-04 15:40:00+00:00,199.9514,-0.3,17.11,47.84626,-54.09684
2019-01-04 15:50:00+00:00,195.9765,-0.18,16.39,47.84626,-54.09684
2019-01-04 16:00:00+00:00,197.9398,-0.05,15.51,47.84626,-54.09684
2019-01-04 16:10:00+00:00,195.5631,0.08,15.6,47.84626,-54.09684
2019-01-04 16:20:00+00:00,186.6548,0.1,15.27,47.84626,-54.09684
2019-01-04 16:30:00+00:00,184.0214,0.14,15.04,47.84626,-54.09684
2019-01-04 16:40:00+00:00,187.9515,0.19,14.96,47.84626,-54.09684
2019-01-04 16:50:00+00:00,187.5715,0.2,15.04,47.84626,-54.09684
2019-01-04 17:00:00+00:00,186.1815,0.2,15.27,47.84626,-54.09684
2019-01-04 17:10:00+00:00,188.8198,0.19,15.35,47.84626,-54.09684
2019-01-04 17:20:00+00:00,191.5515,0.19,15.44,47.84626,-54.09684
2019-01-04 17:30:00+00:00,194.2515,0.19,15.27,47.84626,-54.09684
2019-01-04 17:40:00+00:00,198.4565,0.19,14.88,47.84626,-54.09684
2019-01-04 17:50:00+00:00,201.6914,0.19,14.88,47.84626,-54.09684
2019-01-04 18:00:00+00:00,208.8531,0.2,14.64,47.84626,-54.09684
2019-01-04 18:10:00+00:00,216.2964,0.2,14.48,47.84626,-54.09684
2019-01-04 18:20:00+00:00,213.3715,0.2,14.64,47.84626,-54.09684
2019-01-04 18:30:00+00:00,208.6764,0.2,14.56,47.84626,-54.09684
2019-01-04 18:40:00+00:00,210.6131,0.2,14.48,47.84626,-54.09684
2019-01-04 18:50:00+00:00,211.3232,0.2,14.4,47.84626,-54.09684
2019-01-04 19:00:00+00:00,214.2331,0.2,14.48,47.84626,-54.09684
2019-01-04 19:10:00+00:00,217.2431,0.2,14.4,47.84626,-54.09684
2019-01-04 19:20:00+00:00,220.2448,0.2,14.48,47.84626,-54.09684
2019-01-04 19:30:00+00:00,228.4131,0.2,14.4,47.84626,-54.09684
2019-01-04 19:40:00+00:00,235.3931,0.2,14.32,47.84626,-54.09684
2019-01-04 19:50:00+00:00,240.5331,0.29,14.24,47.84626,-54.09684
2019-01-04 20:00:00+00:00,249.1331,0.46,14.08,47.84626,-54.09684
2019-01-04 20:10:00+00:00,258.4548,0.78,13.92,47.84626,-54.09684
2019-01-04 20:20:00+00:00,261.8464,0.9,13.92,47.84626,-54.09684
2019-01-04 20:30:00+00:00,261.8948,0.9,13.84,47.84626,-54.09684
2019-01-04 20:40:00+00:00,266.9664,0.91,13.76,47.84626,-54.09684
2019-01-04 20:50:00+00:00,270.6814,0.9,13.76,47.84626,-54.09684
2019-01-04 21:00:00+00:00,276.6647,0.91,13.6,47.84626,-54.09684
2019-01-04 21:10:00+00:00,287.5131,0.94,13.44,47.84626,-54.09684
2019-01-04 21:20:00+00:00,295.5447,0.97,13.44,47.84626,-54.09684
2019-01-04 21:30:00+00:00,294.1497,0.96,13.37,47.84626,-54.09684
2019-01-04 21:40:00+00:00,300.2947,0.95,13.37,47.84626,-54.09684
2019-01-04 21:50:00+00:00,318.203,0.9,13.37,47.84626,-54.09684
2019-01-04 22:00:00+00:00,327.8731,0.9,13.29,47.84626,-54.09684
2019-01-04 22:10:00+00:00,323.1113,0.9,13.13,47.84626,-54.09684
2019-01-04 22:20:00+00:00,329.9514,0.9,13.13,47.84626,-54.09684
2019-01-04 22:30:00+00:00,339.888,0.89,13.13,47.84626,-54.09684
2019-01-04 22:40:00+00:00,336.7662,0.8,13.13,47.84626,-54.09684
2019-01-04 22:50:00+00:00,328.8213,0.7,13.13,47.84626,-54.09684
2019-01-04 23:00:00+00:00,332.4213,0.63,13.05,47.84626,-54.09684
2019-01-04 23:10:00+00:00,330.103,0.63,12.89,47.84626,-54.09684
2019-01-04 23:20:00+00:00,324.918,0.68,12.97,47.84626,-54.09684
2019-01-04 23:30:00+00:00,328.8547,0.7,12.97,47.84626,-54.09684
2019-01-04 23:40:00+00:00,328.5513,0.7,13.05,47.84626,-54.09684
2019-01-04 23:50:00+00:00,319.0297,0.7,13.05,47.84626,-54.09684
